[[{"header":{"parameterUnit":"m.s-1","parameterCategory":1,"la1":30.2991,"la2":30.254,"lo1":-89.0895,"lo2":-89.0444,"dy":0.0017,"dx":0.0017,"nx":28,"ny":28,"refTime":"2025-11-15T09:00:00:Z","depth":0,"parameterNumber":2,"parameterNumberName":"U-component_of_WINDS"},"data":[0,0,0,0,0,0,0,0,0,0,0,0,0,0,0,0,0,0,0,0,0,0,0,0,0,0,0,0,0,0,0,0,0,0,0,0,0,0,0,0,0,0,0,0,0,0,0,0,0,0,0,0,0,0,0,0,0,0,0.8177,0.8177,0,0.8205,0.8205,0.8206,0.8165,0.8164,0.8162,0.8161,0.8192,0.8194,0.8196,0,0,0,0,0,0,0,0,0,0,0,0,0,0.8088,0.809,0.8176,0.8177,0.8177,0.8205,0.8205,0.8206,0.8166,0.8164,0.8162,0.816,0.8191,0.8194,0.8196,0,0,0,0,0,0,0,0,0,0,0,0,0,0.8123,0.809,0.8176,0.816,0.8159,0.8205,0.8205,0.8206,0.8166,0.8164,0.8162,0.816,0.819,0.8193,0.8196,0.826,0,0,0.8206,0.8208,0,0,0,0,0,0,0,0,0.8121,0.8126,0.8162,0.8162,0.816,0.8179,0.8185,0.8224,0.8166,0.8163,0.8161,0.8159,0.8189,0.8193,0.8203,0.8261,0.8262,0.8207,0.8209,0.821,0.8211,0,0,0,0,0,0,0,0.8118,0.8124,0.8188,0.8163,0.8162,0.8152,0.8155,0.8193,0.8188,0.8164,0.8161,0.8165,0.8188,0.82,0.8203,0.8263,0.8207,0.8209,0.8211,0.8213,0.8374,0.8376,0,0,0,0,0,0,0.8118,0.8123,0.8187,0.8189,0.8135,0.8156,0.8158,0.8176,0.8188,0.8187,0.8166,0.8163,0.8195,0.8199,0.8204,0.8279,0.821,0.8213,0.8215,0.8372,0.8375,0.8377,0,0,0,0,0,0,0.8116,0.8124,0.8186,0.8155,0.8162,0.8159,0.8179,0.8177,0.8188,0.819,0.8189,0.8179,0.8194,0.82,0.8246,0.8279,0.8214,0.8217,0.8369,0.8373,0.8376,0.8428,0,0,0,0,0,0,0.8114,0.8123,0.8147,0.8156,0.8164,0.8227,0.8181,0.8179,0.8194,0.8189,0.8201,0.8201,0.8192,0.8241,0.8249,0.8282,0.822,0.8366,0.8371,0.8375,0.8424,0.8433,0.8441,0,0,0,0,0,0.8111,0.8161,0.8149,0.8157,0.8193,0.8229,0.8234,0.8223,0.8197,0.8221,0.8222,0.8201,0.8274,0.8246,0.8255,0.829,0.8364,0.8369,0.8374,0.842,0.8431,0.8441,0,0,0,0,0,0,0.8157,0.8162,0.8148,0.8203,0.8216,0.8222,0.8252,0.8235,0.8256,0.8251,0.8237,0.824,0.8289,0.8294,0.8263,0.8351,0.8315,0.8322,0.8346,0.8357,0.8366,0.8364,0.8223,0,0,0,0,0,0.8174,0.8202,0.8205,0.8253,0.826,0.8255,0.827,0.826,0.8273,0.8279,0.8283,0.8297,0.8323,0.834,0.8365,0.8424,0.8426,0.8452,0.8461,0.8468,0.8475,0.8507,0.8518,0.8395,0.8395,0.8394,0,0,0.8208,0.8214,0.8233,0.8262,0.8271,0.8301,0.826,0.8293,0.8315,0.8284,0.8328,0.8331,0.8346,0.8399,0.8423,0.8405,0.8509,0.8475,0.8481,0.8483,0.8513,0.8525,0.8535,0.8398,0.8397,0.8397,0,0,0.8286,0.8294,0.8334,0.8344,0.8358,0.8354,0.8364,0.8373,0.8374,0.8418,0.8395,0.8421,0.8466,0.8478,0.8489,0.8571,0.8553,0.858,0.8626,0.8657,0.8667,0.8676,0.8705,0.8716,0.8586,0.8586,0.8586,0,0.8328,0.8371,0.8358,0.8392,0.8406,0.8378,0.842,0.843,0.8451,0.8461,0.844,0.8497,0.8505,0.856,0.858,0.859,0.8601,0.8578,0.8667,0.8675,0.8683,0.8711,0.8722,0.8589,0.8589,0.8589,0.8588,0,0.8421,0.8452,0.8483,0.8503,0.8521,0.8559,0.8551,0.857,0.8559,0.8558,0.8603,0.8611,0.8636,0.8649,0.8638,0.8703,0.8691,0.8669,0.8632,0.8698,0.8724,0.8734,0.8594,0.8593,0.8592,0.8591,0,0,0.8529,0.8542,0.8553,0.8562,0.8575,0.8599,0.8636,0.866,0.8677,0.8692,0.8723,0.8762,0.8741,0.8754,0.8745,0.8772,0.8837,0.8747,0.8747,0.8763,0.8908,0.8925,0.8937,0.8825,0.8827,0.8828,0.8907,0,0.8607,0.867,0.8659,0.872,0.8748,0.8723,0.8755,0.8766,0.8766,0.879,0.879,0.8818,0.8789,0.8797,0.8822,0.8824,0.8866,0.8818,0.8853,0.8855,0.885,0.8951,0.8969,0.9043,0.8917,0.8919,0.892,0,0.8706,0.8725,0.8789,0.8797,0.8809,0.8838,0.8859,0.8882,0.8895,0.8893,0.8908,0.8893,0.893,0.8893,0.8943,0.8911,0.8925,0.8928,0.893,0.8933,0.8891,0.8956,0.9066,0.9077,0.8936,0.8935,0.8933,0,0.8778,0.882,0.8863,0.8872,0.8883,0.8904,0.8909,0.892,0.8935,0.8954,0.8964,0.8987,0.9,0.9018,0.901,0.8984,0.9063,0.9024,0.9062,0.9062,0.908,0.9079,0.9193,0.9089,0.9089,0.9089,0.9088,0,0.8866,0.8906,0.8895,0.8922,0.8967,0.8954,0.8998,0.9001,0.9011,0.9038,0.9017,0.9043,0.9031,0.9057,0.9051,0.9094,0.91,0.9099,0.9097,0.9101,0.9101,0.911,0.9104,0.9091,0.9091,0.909,0.909,0,0.8954,0.8949,0.8994,0.9001,0.9004,0.9036,0.9042,0.9067,0.9065,0.91,0.9107,0.9105,0.9133,0.9127,0.9159,0.9155,0.9209,0.92,0.9204,0.9202,0.924,0.9237,0.9364,0.938,0.9266,0.9267,0.9268,0,0.901,0.904,0.905,0.9067,0.9074,0.9101,0.9116,0.9105,0.9122,0.9139,0.9162,0.9189,0.9209,0.9257,0.9258,0.9282,0.9274,0.9317,0.9277,0.928,0.9274,0.9273,0.9276,0.9325,0.9326,0.9327,0.9328,0,0.9111,0.9106,0.9129,0.9151,0.917,0.9187,0.9202,0.9217,0.9206,0.9227,0.9255,0.9272,0.9304,0.9331,0.9353,0.9359,0.9342,0.934,0.935,0.9354,0.9355,0.9355,0.9226,0.9337,0.9336,0.9336,0.9335,0.9335,0.9184,0.921,0.9221,0.9247,0.9257,0.9271,0.9295,0.9296,0.932,0.9345,0.9337,0.937,0.9382,0.941,0.9419,0.9445,0.9429,0.9443,0.9447,0.9451,0.9455,0.9351,0.9449,0.9449,0.9448,0.9448,0.9448,0,0.9284,0.9289,0.9313,0.9335,0.9355,0.9337,0.9353,0.9371,0.94,0.9413,0.9434,0.9467,0.9493,0.9496,0.9521,0.9541,0.9534,0.9548,0.9546,0.9548,0.9468,0.9457,0.9553,0.9553,0.9553,0.9553,0.9553,0.9553,0.9338,0.938,0.9377,0.9424,0.943,0.9461,0.9472,0.9485,0.9495,0.9533,0.9554,0.9556,0.9565,0.959,0.9613,0.9614,0.9624,0.9641,0.9638,0.9564,0.9553,0.9543,0.9533,0.9643,0.9643,0.9715,0.9716,0.9717]},{"header":{"parameterUnit":"m.s-1","parameterCategory":1,"la1":30.2991,"la2":30.254,"lo1":-89.0895,"lo2":-89.0444,"dy":0.0017,"dx":0.0017,"nx":28,"ny":28,"refTime":"2025-11-15T09:00:00:Z","depth":0,"parameterNumber":3,"parameterNumberName":"V-component_of_WINDS"},"data":[0,0,0,0,0,0,0,0,0,0,0,0,0,0,0,0,0,0,0,0,0,0,0,0,0,0,0,0,0,0,0,0,0,0,0,0,0,0,0,0,0,0,0,0,0,0,0,0,0,0,0,0,0,0,0,0,0,0,0.3939,0.3938,0,0.3882,0.3881,0.3881,0.3832,0.3831,0.3831,0.383,0.377,0.3769,0.3767,0,0,0,0,0,0,0,0,0,0,0,0,0,0.4003,0.4002,0.3939,0.3938,0.3938,0.3882,0.3881,0.3881,0.3832,0.3831,0.3831,0.383,0.377,0.3769,0.3767,0,0,0,0,0,0,0,0,0,0,0,0,0,0.3963,0.4001,0.3939,0.3907,0.3903,0.3882,0.3881,0.388,0.3832,0.3831,0.383,0.383,0.377,0.3769,0.3767,0.3773,0,0,0.3762,0.3761,0,0,0,0,0,0,0,0,0.3966,0.3961,0.3912,0.3909,0.3905,0.3863,0.3881,0.3844,0.3832,0.3859,0.383,0.3829,0.3801,0.3797,0.3788,0.377,0.3768,0.3762,0.3761,0.376,0.376,0,0,0,0,0,0,0,0.3968,0.3963,0.3916,0.3911,0.3907,0.3894,0.3887,0.3874,0.3835,0.3857,0.3853,0.3847,0.3799,0.379,0.3786,0.3767,0.3762,0.376,0.3759,0.3759,0.3749,0.375,0,0,0,0,0,0,0.3976,0.3966,0.3918,0.3915,0.3934,0.3894,0.3886,0.3877,0.3835,0.3828,0.3848,0.3845,0.3793,0.3788,0.3784,0.3787,0.376,0.3759,0.3758,0.3749,0.375,0.375,0,0,0,0,0,0,0.3978,0.3973,0.392,0.3939,0.3932,0.3893,0.3884,0.3877,0.3867,0.3829,0.3821,0.3846,0.3792,0.3786,0.3776,0.3785,0.3758,0.3756,0.3748,0.3749,0.375,0.3795,0,0,0,0,0,0,0.398,0.3974,0.3976,0.394,0.3931,0.3915,0.3884,0.3876,0.3865,0.3861,0.3825,0.3818,0.3791,0.3779,0.3774,0.3782,0.3755,0.3747,0.3748,0.375,0.3792,0.3797,0.3802,0,0,0,0,0,0.3983,0.3991,0.3977,0.3971,0.3933,0.3915,0.391,0.388,0.3866,0.3868,0.3842,0.3819,0.3784,0.3778,0.3773,0.378,0.3746,0.3748,0.375,0.379,0.3796,0.3801,0,0,0,0,0,0,0.4029,0.3985,0.3969,0.3966,0.3945,0.3907,0.3908,0.3887,0.3869,0.3866,0.3828,0.382,0.3814,0.3796,0.379,0.3783,0.3762,0.3763,0.3795,0.38,0.3805,0.3809,0.3754,0,0,0,0,0,0.4039,0.4029,0.3991,0.3992,0.3982,0.3947,0.3938,0.3917,0.3893,0.3883,0.3857,0.3834,0.3818,0.3808,0.3791,0.3789,0.378,0.3791,0.3796,0.38,0.3801,0.3798,0.3802,0.3756,0.3756,0.3756,0,0,0.4059,0.4034,0.403,0.4,0.3981,0.397,0.394,0.393,0.3921,0.3881,0.387,0.385,0.3822,0.3816,0.3812,0.38,0.3812,0.3802,0.3806,0.3804,0.38,0.3804,0.3808,0.3757,0.3757,0.3757,0,0,0.4091,0.4071,0.4069,0.4051,0.4022,0.3999,0.3999,0.3964,0.3949,0.3938,0.3907,0.3896,0.3869,0.385,0.3836,0.386,0.3837,0.3855,0.3879,0.3876,0.388,0.3883,0.389,0.3894,0.3856,0.3856,0.3856,0,0.4119,0.4103,0.4071,0.4063,0.405,0.4014,0.4011,0.3994,0.3962,0.3953,0.3941,0.3906,0.3885,0.3873,0.3879,0.3869,0.3867,0.3859,0.3882,0.3885,0.3887,0.3894,0.3897,0.3859,0.3858,0.3858,0.3858,0,0.4139,0.4128,0.413,0.41,0.4087,0.4082,0.4048,0.4039,0.4018,0.3996,0.3984,0.3956,0.3933,0.3928,0.3908,0.3914,0.3907,0.3889,0.3868,0.3894,0.39,0.3902,0.3862,0.3861,0.386,0.386,0,0,0.4199,0.4151,0.4152,0.4137,0.4103,0.4093,0.4085,0.4063,0.4056,0.4034,0.4026,0.4004,0.3986,0.3971,0.3948,0.3946,0.3965,0.3927,0.3926,0.3935,0.3968,0.3982,0.3986,0.3949,0.395,0.395,0.397,0,0.4224,0.421,0.418,0.4174,0.4163,0.4128,0.4121,0.4098,0.4077,0.4063,0.4039,0.4024,0.4003,0.3993,0.3989,0.3963,0.3971,0.3961,0.3941,0.394,0.3949,0.3989,0.4003,0.4024,0.3972,0.3973,0.3973,0,0.4252,0.4233,0.4227,0.4192,0.4186,0.4181,0.4157,0.4145,0.4118,0.4103,0.4086,0.406,0.4049,0.4029,0.4013,0.4007,0.3997,0.3982,0.3982,0.3979,0.3958,0.3986,0.403,0.4033,0.3976,0.3976,0.3976,0,0.4296,0.4269,0.4261,0.4249,0.4209,0.4206,0.4189,0.4161,0.4149,0.4128,0.412,0.4098,0.4086,0.4069,0.4037,0.4026,0.4024,0.4002,0.401,0.401,0.4011,0.4011,0.4053,0.4005,0.4005,0.4004,0.4004,0,0.4328,0.4325,0.428,0.4275,0.427,0.4236,0.4231,0.4211,0.4187,0.4176,0.4144,0.4135,0.4095,0.408,0.4055,0.4045,0.404,0.4026,0.4019,0.4029,0.4031,0.4021,0.4019,0.4005,0.4005,0.4005,0.4005,0,0.4376,0.4346,0.4335,0.4297,0.4288,0.4286,0.4253,0.4247,0.4223,0.421,0.4205,0.4168,0.415,0.4117,0.4088,0.4072,0.4066,0.4055,0.4075,0.4071,0.4081,0.4081,0.4118,0.4121,0.4072,0.4072,0.4072,0,0.4398,0.4395,0.4357,0.4348,0.4333,0.4319,0.4306,0.4272,0.426,0.4229,0.4226,0.4205,0.4186,0.4158,0.4128,0.4106,0.4094,0.4108,0.409,0.4099,0.4093,0.4094,0.4093,0.4113,0.4113,0.4114,0.4114,0,0.444,0.4425,0.4409,0.4388,0.4374,0.4355,0.4335,0.4329,0.4289,0.4278,0.4259,0.4244,0.4216,0.4195,0.4168,0.4149,0.4125,0.412,0.4121,0.413,0.4142,0.4136,0.4087,0.412,0.4119,0.4119,0.4118,0.4118,0.4475,0.4471,0.4444,0.4426,0.4407,0.4389,0.4381,0.4356,0.434,0.4314,0.4295,0.4277,0.4249,0.4211,0.4193,0.4178,0.4167,0.4168,0.4168,0.4169,0.4172,0.4145,0.4173,0.4173,0.4172,0.4172,0.4172,0,0.4516,0.4496,0.4481,0.4453,0.444,0.4419,0.4394,0.4384,0.4369,0.4346,0.4328,0.4305,0.4285,0.4253,0.4229,0.4223,0.4211,0.4218,0.4218,0.4214,0.4184,0.4185,0.4228,0.4228,0.4228,0.4228,0.4228,0.4228,0.4535,0.4526,0.4508,0.4488,0.4468,0.4452,0.4439,0.4422,0.4402,0.4379,0.4362,0.4342,0.4314,0.4288,0.4268,0.4259,0.4252,0.4262,0.4249,0.4222,0.4216,0.4211,0.4213,0.4261,0.4261,0.4281,0.4281,0.4281]}]]